TimeCDT,TemperatureF,Dew PointF,Humidity,Sea Level PressureIn,VisibilityMPH,Wind Direction,Wind SpeedMPH,Gust SpeedMPH,PrecipitationIn,Events,Conditions,WindDirDegrees,DateUTC
12:53 AM,55.0,54.0,96,30.07,10.0,Calm,Calm,-,N/A,,Clear,0,2012-10-22 05:53:00
1:53 AM,54.0,53.1,97,30.08,9.0,Calm,Calm,-,N/A,,Clear,0,2012-10-22 06:53:00
2:53 AM,54.0,52.0,93,30.07,10.0,Calm,Calm,-,N/A,,Clear,0,2012-10-22 07:53:00
3:53 AM,53.1,52.0,96,30.07,9.0,Calm,Calm,-,N/A,,Clear,0,2012-10-22 08:53:00
4:53 AM,52.0,51.1,97,30.07,9.0,Calm,Calm,-,N/A,,Clear,0,2012-10-22 09:53:00
5:53 AM,52.0,50.0,93,30.09,10.0,Calm,Calm,-,N/A,,Clear,0,2012-10-22 10:53:00
6:53 AM,52.0,50.0,93,30.12,10.0,Calm,Calm,-,N/A,,Clear,0,2012-10-22 11:53:00
7:53 AM,53.1,52.0,96,30.13,10.0,Calm,Calm,-,N/A,,Clear,0,2012-10-22 12:53:00
8:53 AM,62.1,55.0,78,30.14,10.0,Calm,Calm,-,N/A,,Clear,0,2012-10-22 13:53:00
9:53 AM,69.1,55.0,61,30.14,10.0,SE,3.5,-,N/A,,Clear,130,2012-10-22 14:53:00
10:53 AM,73.9,55.9,53,30.14,10.0,SSE,9.2,-,N/A,,Clear,160,2012-10-22 15:53:00
11:53 AM,75.9,57.9,54,30.13,10.0,SE,6.9,-,N/A,,Clear,140,2012-10-22 16:53:00
12:53 PM,78.1,57.0,48,30.10,10.0,Variable,3.5,-,N/A,,Clear,0,2012-10-22 17:53:00
1:53 PM,80.1,57.0,45,30.07,10.0,South,9.2,-,N/A,,Clear,170,2012-10-22 18:53:00
2:53 PM,80.1,57.0,45,30.05,10.0,ESE,6.9,-,N/A,,Clear,110,2012-10-22 19:53:00
3:53 PM,80.1,55.9,43,30.04,10.0,SSE,5.8,-,N/A,,Clear,160,2012-10-22 20:53:00
4:53 PM,80.1,55.9,43,30.04,10.0,SSE,8.1,-,N/A,,Clear,160,2012-10-22 21:53:00
5:53 PM,75.9,60.1,58,30.05,10.0,Calm,Calm,-,N/A,,Clear,0,2012-10-22 22:53:00
6:53 PM,68.0,62.1,81,30.06,10.0,Calm,Calm,-,N/A,,Clear,0,2012-10-22 23:53:00
7:53 PM,66.0,61.0,84,30.07,10.0,Calm,Calm,-,N/A,,Clear,0,2012-10-23 00:53:00
8:53 PM,64.9,61.0,87,30.08,10.0,Calm,Calm,-,N/A,,Clear,0,2012-10-23 01:53:00
9:53 PM,64.0,61.0,90,30.09,10.0,Calm,Calm,-,N/A,,Clear,0,2012-10-23 02:53:00
10:53 PM,62.1,60.1,93,30.09,8.0,Calm,Calm,-,N/A,,Clear,0,2012-10-23 03:53:00
11:53 PM,61.0,60.1,97,30.07,10.0,Calm,Calm,-,N/A,,Clear,0,2012-10-23 04:53:00